Terminal Aerodrome Forecast
Issued by NWS Blacksburg, VA

Current Version | Previous Version | Graphics & Text | Print | Product List | Glossary On
Versions: 1 2 3 4 5 6 7 8 9 10 11 12 13 14 15 16 17 18 19 20 21 22 23 24 25 26 27 28 29 30 31 32 33 34 35 36 37 38 39
000
FTUS41 KRNK 300431 AAA
TAFBLF
TAF AMD
KBLF 300431Z 3005/3024 15005KT P6SM SCT015 BKN070
     FM300800 15004KT 5SM BR BKN020
     FM301400 22006KT P6SM FEW025 BKN040
     FM301800 21008KT P6SM SCT040 SCT100=

USA.gov is the U.S. government's official web portal to all federal, state and local government web resources and services.